Location: Newark
(31.1622°N, 59.7161°E)
Time: 21:01:25
(UTC+00:00)

Hubble Space Telescope - Visible Passes

Search period start: 22 July 2019 00:00
Search period end: 01 August 2019 00:00
Orbit: 536 x 540 km, 28.5° (Epoch: 22 July)

Date Brightness Start Highest point End Pass type
(mag) Time Alt. Az. Time Alt. Az. Time Alt. Az.
26 Jul 3.3 23:09:24 11° SE 23:09:24 11° SE 23:09:52 10° SE visible
27 Jul 1.8 00:45:13 10° SW 00:48:58 34° SSE 00:52:44 10° E visible
27 Jul 3.3 22:59:23 12° SE 22:59:23 12° SE 23:00:05 10° ESE visible
28 Jul 1.5 00:34:43 11° SW 00:38:24 40° SSE 00:42:16 10° E visible
28 Jul 3.4 22:49:21 13° ESE 22:49:21 13° ESE 22:49:58 10° ESE visible
29 Jul 1.3 00:24:41 15° WSW 00:27:49 45° S 00:31:47 10° E visible
29 Jul 3.5 22:39:19 12° ESE 22:39:19 12° ESE 22:39:42 10° ESE visible
30 Jul 1.1 00:14:39 20° WSW 00:17:15 50° S 00:21:17 10° E visible
30 Jul 3.7 22:29:17 10° ESE 22:29:17 10° ESE 22:29:21 10° ESE visible
31 Jul 1.0 00:04:38 26° WSW 00:06:42 55° S 00:10:45 10° E visible
